This demonstration page uses our WeatherBlox Daily Observations layout. Learn more.

38.89511, -77.03637

Hourly Observations for August 2, 2017

Temp ( °F °C ) Dew Point ( °F °C ) Humidity (%) Winds ( mph kmh ) Pressure ( in mb ) Visibility ( mi km ) Precip ( " mm )
12:52 am 00:52 Mostly Cloudy 78 25.6 69 20.6 74 74 S 3 6 30.05 1018 10 16.0934 0 0
1:52 am 01:52 Cloudy 77 25 69 20.6 77 77 SSE 5 7 30.05 1018 10 16.0934 0 0
2:52 am 02:52 Mostly Cloudy 76 24.4 71 21.7 85 85 S 6 9 30.04 1017 10 16.0934 0 0
3:52 am 03:52 Cloudy 76 24.4 70 21.1 82 82 SSW 3 6 30.05 1018 10 16.0934 0 0
4:52 am 04:52 Cloudy 76 24.4 71 21.7 85 85 Calm 30.04 1017 10 16.0934 0 0
5:52 am 05:52 Mostly Cloudy 74 23.3 71 21.7 91 91 S 5 7 30.05 1018 10 16.0934 0 0
6:52 am 06:52 Mostly Cloudy 74 23.3 70 21.1 88 88 SW 5 7 30.06 1018 10 16.0934 0 0
7:52 am 07:52 Mostly Cloudy 76 24.4 71 21.7 85 85 SSW 6 9 30.07 1018 10 16.0934 0 0
8:52 am 08:52 Mostly Cloudy 77 25 71 21.7 82 82 SE 5 7 30.07 1018 10 16.0934 0 0
9:52 am 09:52 Partly Cloudy 81 27.2 72 22.2 74 74 Calm 30.07 1018 10 16.0934 0 0
10:52 am 10:52 Partly Cloudy 83 28.3 71 21.7 67 67 S 7 11 30.07 1018 10 16.0934 0 0
11:52 am 11:52 Partly Cloudy 85 29.4 70 21.1 61 61 S 10 17 30.07 1018 10 16.0934 0 0
12:52 pm 12:52 Partly Cloudy 87 30.6 67 19.4 51 51 S 14 22 30.06 1018 10 16.0934 0 0
1:52 pm 13:52 Partly Cloudy 88 31.1 72 22.2 59 59 S 10 17 30.05 1018 10 16.0934 0 0
2:52 pm 14:52 Partly Cloudy 88 31.1 71 21.7 57 57 S 10 17 30.03 1017 10 16.0934 0 0
3:52 pm 15:52 Mostly Cloudy 90 32.2 69 20.6 50 50 S 15 24 30 1016 10 16.0934 0 0
4:52 pm 16:52 Mostly Cloudy 89 31.7 66 18.9 47 47 SW 14 22 30 1016 10 16.0934 0 0
5:52 pm 17:52 Mostly Cloudy 87 30.6 66 18.9 50 50 SW 16 26 30 1016 10 16.0934 0 0
6:52 pm 18:52 Mostly Cloudy 86 30 65 18.3 49 49 SW 13 20 30.01 1016 10 16.0934 0 0
7:52 pm 19:52 Mostly Cloudy 80 26.7 68 20 67 67 E 9 15 30.02 1017 10 16.0934 0 0
8:52 pm 20:52 Clear 79 26.1 68 20 69 69 ENE 5 7 30.05 1018 10 16.0934 0 0
9:52 pm 21:52 Mostly Cloudy 78 25.6 69 20.6 74 74 E 5 7 30.06 1018 10 16.0934 0 0
10:52 pm 22:52 Mostly Cloudy 78 25.6 70 21.1 76 76 Calm 30.07 1018 10 16.0934 0 0
11:52 pm 23:52 Mostly Cloudy 77 25 71 21.7 82 82 SE 7 11 30.08 1019 10 16.0934 0 0

Powered by AerisWeather